When you browse on this site, cookies collect data to enhance your experience and personalize the content and advertising you see.
Visit our Privacy Policy to learn more. By continuing to use the site, you agree to this use of cookies and data.

Previsão horária em Luhnovo

Hoje, 3 Julho, Sexta-feira

Tempo Temperatura Precipitação Vento Pressão Humidade
00:00 +16°C° 0 mm 3 m/s 750 mmHg 96%
01:00 +14°C° 0 mm 3 m/s 751 mmHg 96%
02:00 +14°C° 0 mm 3 m/s 751 mmHg 96%
03:00 +14°C° 0 mm 3 m/s 751 mmHg 95%
04:00 +14°C° 0 mm 3 m/s 751 mmHg 95%
05:00 +14°C° 0 mm 3 m/s 752 mmHg 94%
06:00 +16°C° 0 mm 3 m/s 752 mmHg 89%
07:00 +17°C° 0 mm 3 m/s 752 mmHg 84%
08:00 +18°C° 0 mm 3 m/s 753 mmHg 79%
09:00 +19°C° 0 mm 3 m/s 753 mmHg 69%
10:00 +21°C° 0 mm 3 m/s 753 mmHg 60%
11:00 +22°C° 0 mm 3 m/s 753 mmHg 50%
12:00 +24°C° 0 mm 3 m/s 753 mmHg 48%
13:00 +24°C° 0 mm 3 m/s 753 mmHg 47%
14:00 +25°C° 0 mm 3 m/s 753 mmHg 46%
15:00 +25°C° 0 mm 3 m/s 753 mmHg 47%
16:00 +25°C° 0 mm 2 m/s 753 mmHg 48%
17:00 +25°C° 0 mm 2 m/s 752 mmHg 50%
18:00 +23°C° 0 mm 2 m/s 753 mmHg 57%
19:00 +20°C° 0 mm 2 m/s 753 mmHg 64%
20:00 +19°C° 0 mm 2 m/s 753 mmHg 72%
21:00 +19°C° 0 mm 1 m/s 753 mmHg 73%
22:00 +16°C° 0 mm 1 m/s 753 mmHg 75%
23:00 +15°C° 0 mm 1 m/s 753 mmHg 76%

Amanhã, 4 Julho, Sábado

Tempo Temperatura Precipitação Vento Pressão Humidade
00:00 +15°C° 0 mm 1 m/s 753 mmHg 75%
01:00 +14°C° 0 mm 0 m/s 753 mmHg 75%
02:00 +14°C° 0 mm 0 m/s 754 mmHg 74%
03:00 +14°C° 0 mm 0 m/s 754 mmHg 76%
04:00 +14°C° 0 mm 0 m/s 754 mmHg 77%
05:00 +15°C° 0 mm 0 m/s 754 mmHg 78%
06:00 +18°C° 0 mm 1 m/s 754 mmHg 73%
07:00 +19°C° 0 mm 1 m/s 754 mmHg 69%
08:00 +20°C° 0 mm 2 m/s 754 mmHg 64%
09:00 +21°C° 0 mm 2 m/s 754 mmHg 61%
10:00 +22°C° 0 mm 3 m/s 753 mmHg 59%
11:00 +24°C° 0 mm 3 m/s 753 mmHg 56%
12:00 +23°C° 0 mm 4 m/s 753 mmHg 52%
13:00 +25°C° 0 mm 4 m/s 753 mmHg 48%
14:00 +26°C° 0 mm 5 m/s 752 mmHg 44%
15:00 +25°C° 0 mm 4 m/s 752 mmHg 46%
16:00 +25°C° 0 mm 4 m/s 752 mmHg 47%
17:00 +25°C° 0 mm 4 m/s 752 mmHg 49%
18:00 +23°C° 0 mm 4 m/s 752 mmHg 56%
19:00 +21°C° 0 mm 4 m/s 752 mmHg 63%
20:00 +20°C° 0 mm 3 m/s 752 mmHg 69%
21:00 +19°C° 0 mm 3 m/s 752 mmHg 72%
22:00 +19°C° 0 mm 3 m/s 752 mmHg 75%
23:00 +18°C° 0 mm 4 m/s 752 mmHg 77%

Depois de amanhã, 5 Julho, Domingo

Tempo Temperatura Precipitação Vento Pressão Humidade
00:00 +17°C° 0 mm 3 m/s 752 mmHg 81%
01:00 +16°C° 0 mm 3 m/s 752 mmHg 85%
02:00 +14°C° 0 mm 3 m/s 752 mmHg 88%
03:00 +14°C° 0 mm 3 m/s 752 mmHg 89%
04:00 +14°C° 0 mm 3 m/s 752 mmHg 90%
05:00 +14°C° 0 mm 3 m/s 752 mmHg 91%
06:00 +16°C° 0 mm 3 m/s 752 mmHg 87%
07:00 +17°C° 0 mm 3 m/s 752 mmHg 84%
08:00 +17°C° 0 mm 3 m/s 752 mmHg 81%
09:00 +17°C° 0.1 mm 3 m/s 752 mmHg 84%
10:00 +17°C° 0.1 mm 3 m/s 752 mmHg 87%
11:00 +17°C° 0.1 mm 4 m/s 752 mmHg 89%
12:00 +17°C° 0.2 mm 4 m/s 752 mmHg 91%
13:00 +17°C° 0.2 mm 4 m/s 751 mmHg 92%
14:00 +17°C° 0.2 mm 4 m/s 751 mmHg 93%
15:00 +18°C° 0 mm 4 m/s 751 mmHg 91%
16:00 +18°C° 0 mm 4 m/s 750 mmHg 88%
17:00 +19°C° 0 mm 4 m/s 750 mmHg 86%
18:00 +19°C° 0 mm 3 m/s 750 mmHg 86%
19:00 +19°C° 0 mm 3 m/s 750 mmHg 87%
20:00 +19°C° 0 mm 2 m/s 749 mmHg 87%
21:00 +19°C° 0 mm 3 m/s 749 mmHg 89%
22:00 +18°C° 0 mm 3 m/s 749 mmHg 90%
23:00 +18°C° 0 mm 4 m/s 749 mmHg 92%

6 Julho, Segunda-feira

Tempo Temperatura Precipitação Vento Pressão Humidade
00:00 +18°C° 0.1 mm 4 m/s 748 mmHg 92%
01:00 +18°C° 0.1 mm 4 m/s 748 mmHg 92%
02:00 +17°C° 0.1 mm 5 m/s 748 mmHg 92%
03:00 +17°C° 0.1 mm 5 m/s 747 mmHg 92%
04:00 +17°C° 0.1 mm 5 m/s 747 mmHg 92%
05:00 +17°C° 0.1 mm 5 m/s 747 mmHg 92%
06:00 +17°C° 0.2 mm 5 m/s 746 mmHg 93%
07:00 +17°C° 0.2 mm 5 m/s 746 mmHg 93%
08:00 +17°C° 0.2 mm 5 m/s 746 mmHg 94%
09:00 +19°C° 0.5 mm 5 m/s 746 mmHg 91%
10:00 +20°C° 0.5 mm 6 m/s 746 mmHg 89%
11:00 +21°C° 0.5 mm 6 m/s 746 mmHg 86%
12:00 +21°C° 0.5 mm 5 m/s 746 mmHg 84%
13:00 +21°C° 0.5 mm 5 m/s 746 mmHg 82%
14:00 +22°C° 0.5 mm 5 m/s 746 mmHg 81%
15:00 +22°C° 0.3 mm 4 m/s 746 mmHg 79%
16:00 +22°C° 0.3 mm 4 m/s 746 mmHg 77%
17:00 +22°C° 0.3 mm 4 m/s 746 mmHg 76%
18:00 +21°C° 0.3 mm 4 m/s 746 mmHg 80%
19:00 +20°C° 0.3 mm 3 m/s 746 mmHg 84%
20:00 +19°C° 0.3 mm 3 m/s 746 mmHg 88%
21:00 +18°C° 0 mm 3 m/s 746 mmHg 90%
22:00 +17°C° 0 mm 3 m/s 747 mmHg 92%
23:00 +16°C° 0 mm 3 m/s 747 mmHg 93%

7 Julho, Terça-feira

Tempo Temperatura Precipitação Vento Pressão Humidade
00:00 +14°C° 0 mm 3 m/s 747 mmHg 93%
01:00 +13°C° 0 mm 4 m/s 748 mmHg 92%
02:00 +12°C° 0 mm 4 m/s 748 mmHg 91%
03:00 +12°C° 0 mm 4 m/s 748 mmHg 91%
04:00 +12°C° 0 mm 4 m/s 749 mmHg 90%
05:00 +12°C° 0 mm 4 m/s 749 mmHg 90%
06:00 +13°C° 0 mm 4 m/s 749 mmHg 82%
07:00 +15°C° 0 mm 5 m/s 749 mmHg 74%
08:00 +16°C° 0 mm 5 m/s 749 mmHg 66%
09:00 +17°C° 0 mm 6 m/s 749 mmHg 61%
10:00 +20°C° 0 mm 6 m/s 750 mmHg 56%
11:00 +21°C° 0 mm 6 m/s 750 mmHg 52%
12:00 +21°C° 0 mm 6 m/s 750 mmHg 50%
13:00 +21°C° 0 mm 6 m/s 750 mmHg 48%
14:00 +21°C° 0 mm 6 m/s 750 mmHg 46%
15:00 +21°C° 0 mm 6 m/s 750 mmHg 47%
16:00 +20°C° 0 mm 5 m/s 750 mmHg 48%
17:00 +20°C° 0 mm 5 m/s 750 mmHg 49%
18:00 +19°C° 0 mm 4 m/s 750 mmHg 56%
19:00 +17°C° 0 mm 4 m/s 751 mmHg 62%
20:00 +16°C° 0 mm 3 m/s 751 mmHg 69%
21:00 +14°C° 0 mm 3 m/s 751 mmHg 73%
22:00 +12°C° 0 mm 3 m/s 751 mmHg 76%
23:00 +11°C° 0 mm 3 m/s 751 mmHg 80%

8 Julho, Quarta-feira

Tempo Temperatura Precipitação Vento Pressão Humidade
00:00 +11°C° 0 mm 3 m/s 752 mmHg 83%
01:00 +10°C° 0 mm 3 m/s 752 mmHg 85%
02:00 +9°C° 0 mm 3 m/s 752 mmHg 88%
03:00 +10°C° 0 mm 3 m/s 752 mmHg 88%
04:00 +10°C° 0 mm 3 m/s 752 mmHg 88%
05:00 +10°C° 0 mm 3 m/s 752 mmHg 87%
06:00 +12°C° 0 mm 3 m/s 752 mmHg 83%
07:00 +13°C° 0 mm 3 m/s 752 mmHg 78%
08:00 +16°C° 0 mm 3 m/s 752 mmHg 73%
09:00 +17°C° 0 mm 3 m/s 753 mmHg 67%
10:00 +18°C° 0 mm 4 m/s 753 mmHg 61%
11:00 +20°C° 0 mm 4 m/s 753 mmHg 55%
12:00 +20°C° 0.3 mm 4 m/s 753 mmHg 57%
13:00 +20°C° 0.3 mm 4 m/s 753 mmHg 58%
14:00 +21°C° 0.3 mm 4 m/s 753 mmHg 60%
15:00 +20°C° 0.5 mm 4 m/s 753 mmHg 64%
16:00 +20°C° 0.5 mm 3 m/s 753 mmHg 68%
17:00 +19°C° 0.5 mm 3 m/s 753 mmHg 71%
18:00 +19°C° 0.1 mm 3 m/s 753 mmHg 74%
19:00 +18°C° 0.1 mm 2 m/s 753 mmHg 78%
20:00 +17°C° 0.1 mm 2 m/s 753 mmHg 81%
21:00 +15°C° 0 mm 2 m/s 754 mmHg 84%
22:00 +14°C° 0 mm 2 m/s 754 mmHg 87%
23:00 +13°C° 0 mm 2 m/s 754 mmHg 91%
Mostrar mais